Location: Newark
(13.8117°N, 3.6025°W)
Time: 05:03:42
(UTC+00:00)

Courier 1B - Pass Details

Date: 21 August 2019
Orbit: 962 x 1209 km, 28.3° (Epoch: 16 September)

Event Time Altitude Azimuth Distance (km) Brightness Sun altitude
Rises 20:01:48 0° 295° (WNW) 3,686 12.0 -21.6°
Reaches altitude 10° 20:05:10 10° 311° (NW) 2,711 10.8 -22.3°
Maximum altitude 20:10:01 21° 359° (N) 1,985 9.3 -23.5°
Enters shadow 20:13:50 13° 41° (NE) 2,448 9.4 -24.3°
